SL-16 DEB, 29097

Orbit data source: Space-Track

SL-16 DEB, 29097 is space debris in LEO originally from a launch on Fri, 26 Mar 1993 UTC launched from the Tyuratam Missile And Space Complex (TTMTR). Debris objects in space refer to the collection of defunct objects orbiting the Earth. Examples of debris include non-operational satellites, rocket bodies, and fragments generated from explosions, collisions, or faulty payload assembly.

Loading next visibility...
Identifier
29097, 1993-016AL
Orbit
LEO
Last TLE update
2 days ago
Origin
Manufacturer
Unknown
Mission
Spacecraft
Bus & Motor
Unknown
Mass
Unknown
Launch date (UTC)
1993-03-26 (32 years ago)
Launch vehicle
Unknown
Launch site
Tyuratam Missile And Space Complex (TTMTR)
Object type
Payload
Rocket body
Debris
Shape & HBR
Unknown
Radar Cross Section
Small (<0.1 m²)

Expand to show TLE details & history

TLE from 2 days ago
0 SL-16 DEB
1 29097U 93016AL  25180.41246712  .00000046  00000-0  63763-4 0  9998
2 29097  71.0044 171.4053 0124362  42.4260 106.7175 13.94477663224962
Epoch: 2025-06-29T09:53Z
TLE epoch observation values (Epoch: 2025-06-29T09:53:57.159Z)
Latitude
27.79787°
Longitude
-85.2208°
Altitude
942.976 km
Speed
7.369 km/s
True Right ascension
22h 44m 01s
True Declination
27° 39' 35"
Sunlit
Object was in daylight at epoch
Visualization orbit readout
Latitude
-58.93404°
Longitude
-44.14449°
Altitude
1,017.087 km
Speed
7.301 km/s
Apparent Right ascension
05h 35m 02s
Apparent Declination
-62° 38' 20"
Sunlit
Object is in daylight
Visualization observer readout
Local Sidereal Time
20:28:41
Azimuth
145.925° SSE
Elevation
-55.685°
Doppler factor
1
Orbital elements
Apogee altitude
1,001.574 km
Perigee altitude
820.277 km
Semi-major axis
7,289.062 km
Eccentricity
0.01244
Inclination
71.0044°
RAAN
171.4053°
Arg. of periapsis
42.426°
True anomaly
Unknown
Mean anomaly
106.7175°
Eccentric anomaly
Unknown
Mean motion
3.48767 °/min
Orbital period
103.22 mins
BSTAR
0.000063763
Loading maneuver chart data...
Loading SW <> Apogee altitude chart data...
Loading historical data...
Loading historical data...
Loading historical data...
Loading historical data...
Loading historical data...
Loading historical data...
Loading historical data...

SL-16 DEB Visibility forecast

Observer location: undefined°, undefined°

Span
Click to sort rows by Start time (UTC) header in descending order
Start Az.
Max El. time (UTC)
Max El. Az.
Max El.
End time (UTC)
End Az.
11 mins2025-07-01 09:56:30.419Z344.488° N2025-07-01 10:01:30.419Z45.159° ENE40.996°2025-07-01 10:07:30.419Z144.031° SSE
6 mins2025-07-01 11:44:30.419Z289.776° WNW2025-07-01 11:47:30.419Z253.532° W18.242°2025-07-01 11:50:30.419Z221.867° SW
6 mins2025-07-01 23:18:30.419Z135.131° SSE2025-07-01 23:20:30.419Z107.706° ESE20.607°2025-07-01 23:24:30.419Z56.056° ENE
8 mins2025-07-02 01:02:30.419Z233.153° WSW2025-07-02 01:06:30.419Z310.886° NW35.246°2025-07-02 01:10:30.419Z7.837° NNE
4 mins2025-07-02 08:20:30.419Z31.794° NE2025-07-02 08:22:30.419Z54.193° ENE14.141°2025-07-02 08:24:30.419Z74.961° E
|